Regional Weather Roundup
Issued by NWS

Home | Current Version | Previous Version | Graphics & Text | Print | Product List | Glossary On
Versions: 1 2 3 4 5 6 7 8 9 10 11 12 13 14 15 16 17 18 19 20 21 22 23 24 25 26 27 28 29 30 31 32 33 34 35 36 37 38 39 40 41 42 43 44 45 46 47 48 49 50
000
ASUS43 KMPX 182010
RWRMN
WEATHER ROUNDUP FOR MINNESOTA
NATIONAL WEATHER SERVICE TWIN CITIES/CHANHASSEN MN
300 PM CDT MON SEP 18 2017


NOTE: "FAIR" INDICATES FEW OR NO CLOUDS BELOW 12,000 FEET WITH NO
SIGNIFICANT WEATHER AND/OR OBSTRUCTIONS TO VISIBILITY. N/A MEANS
CURRENT SKY AND/OR WEATHER CONDITIONS ARE NOT AVAILABLE.

MNZ060>063-068>070-182100-
   Twin Cities Metro

CITY           SKY/WX    TMP DP  RH WIND       PRES   REMARKS
TWIN CITIES    RAIN      55  54  96 SE13      29.99F
ST PAUL        RAIN      55  53  93 SE13      30.00F FOG
CRYSTAL        LGT RAIN  55  50  83 SE8       29.99F
BLAINE         LGT RAIN  55  55 100 SE10      30.00F
LAKEVILLE      LGT RAIN  54  54 100 SE6       30.00F
EDEN PRAIRIE   CLOUDY    56  54  93 SE10      29.99F
SOUTH ST PAUL  RAIN      54  54  99 SE8       29.99F
LAKE ELMO      DRIZZLE   54  54 100 SE9       30.02F
$$
MNZ001>005-007-008-013>017-022>024-027-028-182100-
   Northwest Minnesota

CITY           SKY/WX    TMP DP  RH WIND       PRES   REMARKS
BEMIDJI        MOSUNNY   68  50  52 SE16      29.90F
HALLOCK        CLOUDY    66  50  55 SE14      29.86F
ROSEAU         PTSUNNY   66  54  63 S14G20    29.89F
WARROAD        MOSUNNY   64  54  68 S12       29.91S
THIEF RVR FALL CLOUDY    63  51  65 SE13      29.88F
CROOKSTON      PTSUNNY   68  54  60 SE9       29.85F
FOSSTON        PTSUNNY   66  52  59 SE15      29.88F
DETROIT LAKES  PTSUNNY   61  54  77 S18       29.90S
MOORHEAD       MOSUNNY   64  55  72 SE17G23   29.86R HAZE
PARK RAPIDS    CLOUDY    61  52  72 S15       29.92F
MAHNOMEN       CLOUDY    66  53  63 SE16      29.86F
$$
MNZ006-009>011-018-025>026-182100-
   North Central Minnesota

CITY           SKY/WX    TMP DP  RH WIND       PRES   REMARKS
BAUDETTE       CLOUDY    62  48  60 S12       29.93F
FLAG ISLAND    MOSUNNY   63  48  59 SE6       29.91F
INTL FALLS     CLOUDY    64  48  56 VRB6      29.96F
WASKISH        CLOUDY    63  52  67 SE7G17    29.93F
BIG FORK       MOSUNNY   63  50  63 E5        29.95F
LONGVILLE      CLOUDY    61  52  72 S10       29.96S
GRAND RAPIDS   CLOUDY    64  50  60 S15G21    29.98F
CRANE LAKE     MOSUNNY   63  48  59 S9        30.01F
ORR            CLOUDY    63  46  55 SE9       29.96F
COOK           SUNNY     63  48  59 S7        29.99F
WALKER         CLOUDY    62  50  65 SE15G23   29.93S
$$
MNZ012-019>021-037-182100-
   Northeast Minnesota

CITY           SKY/WX    TMP DP  RH WIND       PRES   REMARKS
DULUTH         CLOUDY    58  51  78 S6        30.03F
ELY            CLOUDY    61  45  55 S9G16     30.03F
HIBBING        CLOUDY    63  46  54 SE10G18   29.99F
EVELETH        CLOUDY    64  36  35 S12       30.02F
DULUTH HARBOR  CLOUDY    61  54  77 S7        30.04F
SILVER BAY     CLOUDY    59  52  77 SE6       30.04F
GRAND MARAIS     N/A     58  53  84 S5        30.08F
G MARAIS ARPRT CLOUDY    54  43  66 S6        30.08F
$$
MNZ029>031-032-039>041-046>048-054>057-064-182100-
   West Central Minnesota

CITY           SKY/WX    TMP DP  RH WIND       PRES   REMARKS
FERGUS FALLS   CLOUDY    61  54  77 SE14      29.89F
WHEATON        CLOUDY    64  55  72 SE16      29.88S
MORRIS         CLOUDY    63  57  82 S12       29.88F
ALEXANDRIA     CLOUDY    59  55  87 SE20      29.92F
ELBOW LAKE     CLOUDY    59  56  88 E17       29.89F
WADENA         CLOUDY    57  52  82 SE16      29.92F
GLENWOOD       CLOUDY    59  55  88 SE10      29.93F
APPLETON       CLOUDY    64  55  72 SE12G17   29.88F
BENSON         CLOUDY    63  55  77 S14G20    29.92F
ORTONVILLE     CLOUDY    64  57  77 NE12G17   29.87F
MADISON        CLOUDY    70  61  73 SE12      29.88F
WILLMAR        CLOUDY    61  57  88 SE13      29.94F
$$
MNZ033>034-036-042>043-049>051-058-059-182100-
   Central Minnesota

CITY           SKY/WX    TMP DP  RH WIND       PRES   REMARKS
ST CLOUD       CLOUDY    58  54  86 SE13      29.97F
PAYNESVILLE    CLOUDY    58  55  87 SE13G22   29.95F
AITKIN         CLOUDY    55  52  88 SE9       29.98F
PINE RIVER     CLOUDY    55  48  76 S13G21    29.99F
BRAINERD       CLOUDY    57  51  80 S12G18    29.98F
STAPLES        CLOUDY    55  50  82 SE14      29.94F
LONG PRAIRIE   CLOUDY    55  52  88 E13G20    29.94F
LITTLE FALLS   CLOUDY    57  46  67 SE9       29.96F
LITCHFIELD     CLOUDY    59  57  94 SE10G17   29.96F
BUFFALO        CLOUDY    56  53  88 E9        29.99F
MAPLE LAKE     CLOUDY    58  55  89 SE6       29.99F
HUTCHINSON     CLOUDY    58  56  92 SE7G17    29.98F
$$
MNZ037-044-045-052-053-182100-
   East Central Minnesota

CITY           SKY/WX    TMP DP  RH WIND       PRES   REMARKS
PRINCETON      CLOUDY    61  54  77 SE10      30.00F
MORA           CLOUDY    55  46  71 S10G16    30.02F
CAMBRIDGE      CLOUDY    59  48  67 SE8       30.01F
RUSH CITY      CLOUDY    57  51  80 SE10G16   30.03S
MOOSE LAKE     CLOUDY    59  50  72 S7        30.00F
HINCKLEY       FAIR      59  52  77 SE8       30.02F
CLOQUET        CLOUDY    57  48  72 SE5       30.02F
MCGREGOR       CLOUDY    55  52  88 S7        30.01F
$$
MNZ071>073-080-081-089-090-097-098-182100-
   Southwest Minnesota

CITY           SKY/WX    TMP DP  RH WIND       PRES   REMARKS
MONTEVIDEO     CLOUDY    66  57  72 S10G17    29.90F
GRANITE FALLS  CLOUDY    65  58  77 SE10      29.93F
CANBY          CLOUDY    69  60  74 SE10      29.89F
MARSHALL       CLOUDY    64  57  77 SE13      29.91S
REDWOOD FALLS  CLOUDY    60  56  86 SE14      29.94F
OLIVIA         CLOUDY    59  55  88 SE14      29.93F
PIPESTONE      CLOUDY    64  61  88 S9        29.91F
WORTHINGTON    CLOUDY    63  61  93 S7        29.93F FOG
JACKSON        CLOUDY    59  59 100 CALM      29.95F FOG
TRACY          CLOUDY    62  59  89 S10       29.93S
SLAYTON        CLOUDY    59  57  92 SE9       29.94F
$$
MNZ065>067-074>077-082>085-091>093-182100-
   South Central Minnesota

CITY           SKY/WX    TMP DP  RH WIND       PRES   REMARKS
MANKATO        RAIN      56  55  97 SE15      29.98F
NEW ULM        LGT RAIN  57  55  94 SE13      29.95F
ST JAMES       CLOUDY    59  57  94 E10       29.96F FOG
FAIRMONT       LGT RAIN  60  58  92 SE7       29.96F FOG
GLENCOE        CLOUDY    58  57  99 SE9       29.96F
FARIBAULT      RAIN      54  54 100 E10       30.01F
OWATONNA       RAIN      57  55  94 E3        30.02S
WASECA         CLOUDY    55  55 100 E3        30.03S
ALBERT LEA     CLOUDY    63  61  94 SE8       29.99F
$$
MNZ078>079-086>088-094>096-182100-
   Southeast Minnesota

CITY           SKY/WX    TMP DP  RH WIND       PRES   REMARKS
ROCHESTER      LGT RAIN  57  56  96 SE9       30.03F
RED WING       HVY RAIN  55  52  88 NE5       30.02F
STANTON        RAIN      55  53  92 SE5       30.01F
DODGE CENTER   LGT RAIN  55  54  94 CALM      30.02S
WINONA         CLOUDY    59  54  82 CALM      30.04S
AUSTIN         DRIZZLE   59  55  88 SE8       30.00F
PRESTON        LGT RAIN  58  54  87 S5        30.04S
$$
ABBREVIATIONS USED IN REMARKS
   TC - TEMPERATURES IN CELSIUS
  WCI - WIND CHILL INDEX
   HX - HEAT INDEX
  VSB - VISIBILITY
$$




USA.gov is the U.S. government's official web portal to all federal, state and local government web resources and services.